Location: Montclair
(37.8322°N, 122.2092°W)
Time: 18:37:34
(UTC+00:00)

Cosmos 1606 Rocket - Visible Passes

Search period start: 11 December 2025 00:00
Search period end: 21 December 2025 00:00
Orbit: 597 x 623 km, 82.5° (Epoch: 11 December)

Date Brightness Start Highest point End Pass type
(mag) Time Alt. Az. Time Alt. Az. Time Alt. Az.
11 Dec 3.5 01:43:31 10° S 01:47:54 82° E 01:52:20 10° N visible
11 Dec 6.4 11:58:42 14° E 11:58:42 14° E 11:59:56 10° ESE visible
11 Dec 4.4 13:35:45 32° WSW 13:35:45 32° WSW 13:38:49 10° SSW visible
12 Dec 4.3 01:58:17 10° SSW 02:02:34 54° W 02:06:55 10° N visible
12 Dec 6.1 12:14:29 17° SE 12:14:29 17° SE 12:15:43 10° SE visible
12 Dec 5.5 13:51:31 14° SW 13:51:31 14° SW 13:52:32 10° SW visible
13 Dec 5.5 02:13:28 10° SW 02:17:19 30° WNW 02:21:14 10° NNW visible
13 Dec 6.1 12:30:14 14° SSE 12:30:14 14° SSE 12:30:54 10° SSE visible
14 Dec 6.3 02:29:13 10° WSW 02:32:10 17° WNW 02:35:08 10° NNW visible
16 Dec 4.0 01:19:12 10° SSW 01:23:35 68° W 01:28:01 10° N visible
17 Dec 5.2 01:34:13 10° SSW 01:38:18 37° WNW 01:42:25 10° N visible
18 Dec 6.1 01:49:42 10° SW 01:53:06 21° WNW 01:56:30 10° NNW visible
19 Dec 6.5 02:06:07 10° W 02:07:58 12° WNW 02:09:50 10° NW visible
